This is the latest recevied weather packets stored in our database for station/object OK0EK-12. If no packets are shown the sender has not sent any weather packets the latest 10 day(s).
| Time | Temp. | Humidity | Pressure | Rain* | Wind** | Luminosity | Snow |
|---|---|---|---|---|---|---|---|
| 1777550089 | 18.89° C | 19% | 1108.9 hPa | - | - | - | - |
| 1777549488 | 18.89° C | 20% | 1109 hPa | - | - | - | - |
| 1777548887 | 18.33° C | 19% | 1108.9 hPa | - | - | - | - |
| 1777548286 | 21.11° C | 19% | 1109 hPa | - | - | - | - |
| 1777547686 | 18.33° C | 20% | 1109.2 hPa | - | - | - | - |
| 1777547085 | 20° C | 20% | 1109.2 hPa | - | - | - | - |
| 1777546484 | 18.89° C | 20% | 1109.3 hPa | - | - | - | - |
| 1777545883 | 19.44° C | 20% | 1109.4 hPa | - | - | - | - |
| 1777545283 | 18.89° C | 20% | 1109.5 hPa | - | - | - | - |
| 1777544682 | 17.78° C | 21% | 1109.6 hPa | - | - | - | - |
| 1777544081 | 18.33° C | 20% | 1109.7 hPa | - | - | - | - |
| 1777543480 | 20° C | 19% | 1109.7 hPa | - | - | - | - |
| 1777542879 | 18.89° C | 20% | 1109.8 hPa | - | - | - | - |
| 1777542281 | 17.22° C | 22% | 1110 hPa | - | - | - | - |
| 1777541678 | 18.33° C | 21% | 1109.9 hPa | - | - | - | - |
| 1777541079 | 17.78° C | 22% | 1110 hPa | - | - | - | - |
| 1777540479 | 17.22° C | 22% | 1109.9 hPa | - | - | - | - |
| 1777539880 | 16.67° C | 24% | 1110.2 hPa | - | - | - | - |
| 1777539280 | 16.11° C | 23% | 1110.1 hPa | - | - | - | - |
| 1777538680 | 15° C | 24% | 1110.4 hPa | - | - | - | - |
| 1777538082 | 13.89° C | 26% | 1110.5 hPa | - | - | - | - |
| 1777537482 | 12.78° C | 28% | 1110.5 hPa | - | - | - | - |
| 1777536882 | 13.89° C | 27% | 1110.5 hPa | - | - | - | - |
| 1777536283 | 14.44° C | 27% | 1110.5 hPa | - | - | - | - |
| 1777535684 | 15° C | 26% | 1110.5 hPa | - | - | - | - |
* Rain since midnight (hover to see other rain measurements)
** Current wind speed in m/s (hover to see current wind gust speed)